TimeAKDT,TemperatureF,Dew PointF,Humidity,Sea Level PressureIn,VisibilityMPH,Wind Direction,Wind SpeedMPH,Gust SpeedMPH,PrecipitationIn,Events,Conditions,WindDirDegrees,DateUTC
12:09 AM,21.2,19.4,93,29.58,1.8,SW,6.9,-,0.00,Snow,Light Snow,230,2012-10-16 08:09:00
12:12 AM,21.2,19.4,93,29.58,1.5,WSW,6.9,-,0.00,Snow,Light Snow,240,2012-10-16 08:12:00
12:25 AM,21.2,19.4,93,29.58,3.0,SW,6.9,-,0.00,Snow,Light Snow,230,2012-10-16 08:25:00
12:53 AM,23.0,21.9,96,29.59,-9999.0,WSW,6.9,-,0.00,Snow,Light Snow,240,2012-10-16 08:53:00
1:26 AM,24.8,23.0,93,29.59,2.0,West,4.6,-,0.00,Snow,Light Snow,280,2012-10-16 09:26:00
1:36 AM,24.8,23.0,93,29.59,1.5,WNW,3.5,-,0.00,Snow,Light Snow,300,2012-10-16 09:36:00
1:41 AM,24.8,24.8,100,29.59,2.0,NW,4.6,-,0.00,Snow,Light Snow,310,2012-10-16 09:41:00
1:51 AM,24.8,24.8,100,29.59,1.8,WNW,4.6,-,0.00,Snow,Light Snow,300,2012-10-16 09:51:00
1:53 AM,25.0,24.1,96,29.59,1.5,WNW,3.5,-,0.00,Snow,Light Snow,300,2012-10-16 09:53:00
2:01 AM,24.8,24.8,100,29.59,2.5,NW,4.6,-,0.00,Snow,Light Snow,320,2012-10-16 10:01:00
2:05 AM,26.6,24.8,93,29.58,3.0,NNW,5.8,-,0.00,Snow,Light Snow,330,2012-10-16 10:05:00
2:30 AM,26.6,26.6,100,29.59,4.0,North,4.6,-,0.00,Snow,Light Snow,360,2012-10-16 10:30:00
2:53 AM,27.0,26.1,96,29.60,3.0,NNE,3.5,-,0.00,Snow,Light Snow,20,2012-10-16 10:53:00
3:53 AM,26.1,26.1,100,29.61,4.0,NNW,3.5,-,0.00,Snow,Light Snow,340,2012-10-16 11:53:00
4:06 AM,26.6,26.6,100,29.60,4.0,NNW,4.6,-,0.00,Snow,Light Snow,340,2012-10-16 12:06:00
4:15 AM,26.6,26.6,100,29.61,3.0,NNW,3.5,-,0.00,Snow,Light Snow,340,2012-10-16 12:15:00
4:18 AM,26.6,26.6,100,29.61,2.5,NNW,4.6,-,0.00,Snow,Light Snow,340,2012-10-16 12:18:00
4:29 AM,26.6,26.6,100,29.61,1.5,NNW,4.6,-,0.00,Snow,Light Snow,340,2012-10-16 12:29:00
4:53 AM,27.0,26.1,96,29.61,1.5,NNW,4.6,-,0.00,Snow,Light Snow,330,2012-10-16 12:53:00
5:20 AM,26.6,26.6,100,29.61,1.0,NNW,5.8,-,0.00,Snow,Light Snow,330,2012-10-16 13:20:00
5:32 AM,28.4,26.6,93,29.61,1.5,North,9.2,-,0.00,Snow,Light Snow,350,2012-10-16 13:32:00
5:49 AM,28.4,26.6,93,29.61,1.8,NNE,9.2,-,0.00,Snow,Light Snow,20,2012-10-16 13:49:00
5:53 AM,28.0,27.0,96,29.62,1.2,North,10.4,-,0.00,Snow,Light Snow,10,2012-10-16 13:53:00
6:04 AM,28.4,26.6,93,29.62,0.5,North,9.2,-,0.00,Fog-Snow,Snow,10,2012-10-16 14:04:00
6:23 AM,28.4,28.4,100,29.62,1.0,North,10.4,-,0.00,Snow,Light Snow,360,2012-10-16 14:23:00
6:38 AM,28.4,28.4,100,29.61,0.8,NNE,5.8,-,0.00,Snow,Light Snow,30,2012-10-16 14:38:00
6:53 AM,28.0,28.0,100,29.62,1.8,NE,6.9,-,0.00,Snow,Light Snow,40,2012-10-16 14:53:00
7:00 AM,28.4,28.4,100,29.62,2.5,NNE,5.8,-,0.00,Snow,Light Snow,20,2012-10-16 15:00:00
7:12 AM,28.4,28.4,100,29.62,1.5,North,6.9,-,0.00,Snow,Light Snow,10,2012-10-16 15:12:00
7:20 AM,28.4,28.4,100,29.62,1.2,North,8.1,-,0.00,Snow,Light Snow,360,2012-10-16 15:20:00
7:26 AM,28.4,28.4,100,29.62,0.8,North,10.4,-,0.00,Snow,Light Snow,360,2012-10-16 15:26:00
7:41 AM,28.4,28.4,100,29.62,1.2,North,11.5,-,0.00,Snow,Light Snow,360,2012-10-16 15:41:00
7:53 AM,28.0,28.0,100,29.63,1.0,North,11.5,-,0.00,Snow,Light Snow,360,2012-10-16 15:53:00
8:05 AM,28.4,26.6,93,29.62,1.5,North,12.7,-,0.00,Snow,Light Snow,10,2012-10-16 16:05:00
8:27 AM,28.4,28.4,100,29.63,0.8,NNE,9.2,-,0.00,Snow,Light Snow,20,2012-10-16 16:27:00
8:45 AM,24.8,24.8,100,29.64,0.5,ESE,6.9,-,0.00,Fog-Snow,Snow,120,2012-10-16 16:45:00
8:53 AM,25.0,25.0,100,29.64,0.8,ESE,5.8,-,0.00,Snow,Light Snow,110,2012-10-16 16:53:00
9:03 AM,24.8,24.8,100,29.64,1.5,East,6.9,-,0.00,Snow,Light Snow,100,2012-10-16 17:03:00
9:12 AM,24.8,24.8,100,29.64,2.0,East,6.9,-,0.00,Snow,Light Snow,90,2012-10-16 17:12:00
9:22 AM,24.8,24.8,100,29.65,3.0,East,4.6,-,0.00,Snow,Light Snow,80,2012-10-16 17:22:00
9:44 AM,24.8,24.8,100,29.66,1.5,ENE,4.6,-,0.00,Snow,Light Snow,60,2012-10-16 17:44:00
9:53 AM,24.1,24.1,100,29.66,1.8,NE,3.5,-,0.00,Snow,Light Snow,50,2012-10-16 17:53:00
10:03 AM,24.8,24.8,100,29.66,2.5,NE,4.6,-,0.00,Snow,Light Snow,50,2012-10-16 18:03:00
10:18 AM,24.8,24.8,100,29.67,3.0,NNE,3.5,-,0.00,Snow,Light Snow,30,2012-10-16 18:18:00
10:30 AM,24.8,24.8,100,29.67,2.5,NE,4.6,-,0.00,Snow,Light Snow,40,2012-10-16 18:30:00
10:45 AM,24.8,23.0,93,29.68,4.0,NE,5.8,-,0.00,Snow,Light Snow,50,2012-10-16 18:45:00
10:53 AM,24.1,23.0,96,29.68,5.0,NE,5.8,-,0.00,,Overcast,40,2012-10-16 18:53:00
11:53 AM,23.0,21.9,96,29.70,10.0,NE,3.5,-,N/A,,Overcast,50,2012-10-16 19:53:00
12:53 PM,23.0,21.9,96,29.71,2.0,Calm,Calm,-,0.00,Snow,Light Snow,0,2012-10-16 20:53:00
1:27 PM,23.0,21.2,93,29.71,1.8,Calm,Calm,-,0.00,Snow,Light Snow,0,2012-10-16 21:27:00
1:53 PM,23.0,21.0,92,29.71,1.5,WSW,3.5,-,0.00,Snow,Light Snow,250,2012-10-16 21:53:00
2:04 PM,23.0,21.2,93,29.71,2.0,WSW,3.5,-,0.00,Snow,Light Snow,240,2012-10-16 22:04:00
2:23 PM,23.0,21.2,93,29.71,4.0,WSW,3.5,-,0.00,Snow,Light Snow,250,2012-10-16 22:23:00
2:39 PM,24.8,23.0,93,29.72,2.0,WSW,3.5,-,0.00,Snow,Light Snow,250,2012-10-16 22:39:00
2:53 PM,24.1,21.9,91,29.72,1.8,WSW,4.6,-,0.00,Snow,Light Snow,240,2012-10-16 22:53:00
3:17 PM,24.8,23.0,93,29.72,2.0,WSW,6.9,-,0.00,Snow,Light Snow,240,2012-10-16 23:17:00
3:28 PM,24.8,23.0,93,29.72,4.0,WSW,8.1,-,0.00,Snow,Light Snow,240,2012-10-16 23:28:00
3:46 PM,24.8,23.0,93,29.72,1.8,WSW,8.1,-,0.00,Snow,Light Snow,240,2012-10-16 23:46:00
3:53 PM,25.0,23.0,92,29.72,2.5,WSW,9.2,-,0.00,Snow,Light Snow,240,2012-10-16 23:53:00
4:01 PM,24.8,24.8,100,29.71,7.0,WSW,9.2,-,0.00,Snow,Light Snow,240,2012-10-17 00:01:00
4:35 PM,24.8,24.8,100,29.70,2.5,SW,12.7,-,0.00,Snow,Light Snow,230,2012-10-17 00:35:00
4:46 PM,24.8,24.8,100,29.70,1.5,SW,13.8,-,0.00,Snow,Light Snow,220,2012-10-17 00:46:00
4:53 PM,25.0,24.1,96,29.70,2.0,SW,12.7,-,0.00,,Overcast,220,2012-10-17 00:53:00
5:02 PM,26.6,24.8,93,29.70,5.0,SW,12.7,-,N/A,,Overcast,220,2012-10-17 01:02:00
5:16 PM,26.6,24.8,93,29.70,10.0,SSW,10.4,-,N/A,,Overcast,210,2012-10-17 01:16:00
5:53 PM,26.1,25.0,96,29.72,10.0,SSE,8.1,-,N/A,,Overcast,160,2012-10-17 01:53:00
6:24 PM,24.8,23.0,93,29.72,1.8,South,11.5,-,0.00,Snow,Light Snow,170,2012-10-17 02:24:00
6:38 PM,24.8,23.0,93,29.72,3.0,South,11.5,-,0.00,Snow,Light Snow,170,2012-10-17 02:38:00
6:53 PM,24.1,23.0,96,29.73,5.0,South,11.5,-,0.00,Snow,Light Snow,180,2012-10-17 02:53:00
7:00 PM,24.8,23.0,93,29.73,3.0,South,11.5,-,0.00,Snow,Light Snow,180,2012-10-17 03:00:00
7:15 PM,24.8,23.0,93,29.73,2.5,South,11.5,-,0.00,Snow,Light Snow,180,2012-10-17 03:15:00
7:32 PM,24.8,23.0,93,29.74,5.0,South,8.1,-,0.00,Snow,Light Snow,190,2012-10-17 03:32:00
7:53 PM,23.0,21.9,96,29.75,4.0,South,6.9,-,0.00,Snow,Light Snow,180,2012-10-17 03:53:00
8:20 PM,21.2,19.4,93,29.75,10.0,South,10.4,-,0.00,,Overcast,170,2012-10-17 04:20:00
8:53 PM,21.0,19.9,96,29.76,9.0,SSE,8.1,-,0.00,Snow,Light Snow,160,2012-10-17 04:53:00
9:43 PM,21.2,21.2,100,29.78,4.0,SSE,5.8,-,0.00,Snow,Light Snow,150,2012-10-17 05:43:00
9:53 PM,21.9,21.0,96,29.78,6.0,SSE,4.6,-,0.00,Snow,Light Snow,160,2012-10-17 05:53:00
10:53 PM,21.0,19.9,96,29.81,10.0,SE,3.5,-,0.00,,Overcast,140,2012-10-17 06:53:00
11:53 PM,21.0,19.9,96,29.82,10.0,Calm,Calm,-,N/A,,Overcast,0,2012-10-17 07:53:00